This is the latest recevied weather packets stored in our database for station/object YF9UAG-17. If no packets are shown the sender has not sent any weather packets the latest 10 day(s).
| Time | Temp. | Humidity | Pressure | Rain* | Wind** | Luminosity | Snow |
|---|---|---|---|---|---|---|---|
| 1777708721 | 28.89° C | 70% | 938 hPa | - | - | 0 W/m² | - |
| 1777707799 | 28.89° C | 70% | 938 hPa | - | - | 0 W/m² | - |
| 1777706877 | 28.89° C | 69% | 938 hPa | - | - | 0 W/m² | - |
| 1777705955 | 28.89° C | 69% | 938 hPa | - | - | 0 W/m² | - |
| 1777705033 | 28.89° C | 68% | 939 hPa | - | - | 0 W/m² | - |
| 1777704111 | 28.89° C | 67% | 939 hPa | - | - | 0 W/m² | - |
| 1777703189 | 28.89° C | 67% | 939 hPa | - | - | 0 W/m² | - |
| 1777702267 | 28.89° C | 67% | 939 hPa | - | - | 0 W/m² | - |
| 1777701345 | 28.89° C | 67% | 939 hPa | - | - | 0 W/m² | - |
| 1777700423 | 30° C | 64% | 940 hPa | - | - | 0 W/m² | - |
| 1777699501 | 30° C | 64% | 940 hPa | - | - | 0 W/m² | - |
| 1777698579 | 29.44° C | 66% | 940 hPa | - | - | 0 W/m² | - |
| 1777697657 | 27.78° C | 70% | 940 hPa | - | - | 0 W/m² | - |
| 1777696735 | 28.89° C | 68% | 940 hPa | - | - | 0 W/m² | - |
| 1777695812 | 28.33° C | 69% | 940 hPa | - | - | 0 W/m² | - |
| 1777694890 | 27.78° C | 69% | 941 hPa | - | - | 0 W/m² | - |
| 1777693968 | 27.78° C | 70% | 941 hPa | - | - | 0 W/m² | - |
| 1777693046 | 27.78° C | 70% | 941 hPa | - | - | 0 W/m² | - |
| 1777692124 | 27.78° C | 71% | 941 hPa | - | - | 0 W/m² | - |
| 1777691202 | 27.22° C | 73% | 942 hPa | - | - | 0 W/m² | - |
| 1777690280 | 28.33° C | 75% | 942 hPa | - | - | 0 W/m² | - |
| 1777689358 | 28.33° C | 76% | 942 hPa | - | - | 0 W/m² | - |
| 1777688436 | 27.22° C | 77% | 942 hPa | - | - | 0 W/m² | - |
| 1777687514 | 26.67° C | 73% | 942 hPa | - | - | 0 W/m² | - |
| 1777669970 | 26.11° C | 68% | 940 hPa | - | - | 0 W/m² | - |
* Rain since midnight (hover to see other rain measurements)
** Current wind speed in m/s (hover to see current wind gust speed)